Hourly Data Report for September 02, 2017

All times are specified in Local Standard Time (LST). Add 1 hour to adjust for Daylight Saving Time where and when it is observed.

SATURNA ISLAND CS
BRITISH COLUMBIA

48°47'02.067" N
123°02'41.082" W
24.40 m
1017101
71473
WEZ

Download Data

Hourly Data (September 2017)
Hourly Data Report for September 2, 2017
Temp Definition
°C
Dew Point Temp Definition
°C
Rel Hum Definition
%
Wind Dir Definition
10's deg

Wind Spd Definition
km/h
Visibility Definition
km
Stn Press Definition
kPa
Hmdx Definition


Wind Chill Definition


Weather Definition


TIME
00:00 17.6 10.6 63 34 3   101.41     LegendNANA
01:00 17.5 11.8 69 30 5   101.39     LegendNANA
02:00 15.6 12.0 79 23 10   101.42     LegendNANA
03:00 17.2 11.4 69 35 4   101.37     LegendNANA
04:00 16.5 11.2 71 28 2   101.37     LegendNANA
05:00 15.4 11.8 79 23 2   101.36     LegendNANA
06:00 16.0 12.5 80 22 6   101.35     LegendNANA
07:00 17.8 12.2 70 22 3   101.37     LegendNANA
08:00 18.1 12.6 71 22 2   101.38     LegendNANA
09:00 18.9 11.5 62 18 4   101.38     LegendNANA
10:00 20.4 12.3 60 15 3   101.38     LegendNANA
11:00 21.4 12.6 57 21 3   101.37     LegendNANA
12:00 23.6 15.4 60 35 5   101.33 28   LegendNANA
13:00 23.1 14.6 59 34 5   101.30 27   LegendNANA
14:00 24.7 14.5 53 33 3   101.25 28   LegendNANA
15:00 23.6 13.4 53 20 11   101.20 27   LegendNANA
16:00 22.7 10.4 46 22 18   101.14     LegendNANA
17:00 23.5 10.0 42 22 15   101.12 25   LegendNANA
18:00 24.9 10.7 41 22 16   101.07 27   LegendNANA
19:00 23.5 11.7 48 22 15   101.08 26   LegendNANA
20:00 24.2 12.0 47 20 8   101.09 26   LegendNANA
21:00 17.8 13.2 75 23 17   101.11     LegendNANA
22:00 18.6 13.7 73 26 7   101.14     LegendNANA
23:00 17.4 13.3 77 27 3   101.14     LegendNANA

Notes on Data Quality.

Legend

  • E = Estimated
  • M = Missing
  • NA = Not Available
  • ‡ = Partner data that is not subject to review by the National Climate Archives
Date modified: